CAPE
0 0 0 0 0 0 0 0 0 0 0 0 0 0 0 0 0 0 0 1 0 30 84 132 164 138 15 272 886 927 823 742 684 365 448 664 794 830 986 692 648 704 643 1178 1319 1156 1232 1334 1273 1512 1400 1582 1660 1722 1809 2437 2951 3277 2864 2820 3197 3043 2698 2726 2954 2903 2793 2555 2671 2491 2456 2494 2582 2824 2560 2664 2658 2487 2978 3258 3600 4128 4226 4731 4642 4708
0 0 0 0 0 0 0 0 0 0 0 0 0 2 0 0 0 0 0 0 0 3 96 64 136 200 228 208 588 944 902 721 618 460 483 450 503 905 1155 1071 1027 824 789 840 1093 1106 1132 1395 1465 1902 1918 1902 1827 1858 1976 2494 2828 3202 3001 2966 3175 3438 2966 2793 2952 3044 2886 2556 2498 2598 2617 2271 2087 2378 2396 2662 2746 3029 2868 3459 4050 4444 4090 3442 4978 4498
0 0 0 0 0 0 0 0 0 0 0 0 0 3 1 3 1 0 0 1 1 0 12 31 106 137 205 191 338 702 798 948 770 786 715 728 774 945 994 1155 1244 1114 1026 917 1037 1084 999 1382 1524 2030 2004 2062 2002 2128 2160 2429 2813 3152 3070 2996 3135 3319 3292 2814 2832 3176 3064 2709 2518 2442 2370 2348 1820 1721 2186 2204 2170 2570 2453 2790 4036 4595 4698 5026 4826 4578
0 0 0 0 0 0 0 0 0 0 0 0 0 0 4 8 5 5 0 6 0 0 16 76 62 68 107 33 282 432 722 976 918 830 811 488 780 866 977 1187 1266 1275 1386 1131 1101 869 990 1312 1484 1776 1903 2270 2129 2296 2280 2468 2827 3175 3476 3197 3218 3354 3392 3311 2914 2991 3064 3063 2865 2862 2788 2503 2044 1579 1762 2050 2168 2360 2559 2674 3793 4545 4765 5110 4471 4507
0 0 0 0 0 0 0 0 0 0 0 0 0 0 0 1 6 1 2 0 1 2 0 15 77 159 190 26 282 469 678 1005 966 770 768 856 797 960 939 1116 1235 1313 1466 1409 1231 1017 1152 1226 1542 1846 2215 2228 2264 2218 2530 2822 3153 3566 3774 3572 3270 3362 3385 3385 3127 3176 3201 3196 3184 3258 3176 2956 2776 2251 2066 2134 2164 2209 2207 2499 2820 3522 3961 3434 3350 3246
0 0 0 0 0 0 0 0 0 0 0 0 0 0 0 2 1 8 4 0 0 0 0 2 194 245 304 112 262 25 523 770 1079 1045 804 799 891 1132 1102 1215 1315 1336 1368 1491 1454 1331 1178 1388 1564 1763 2298 2472 2522 2673 2784 2930 3200 3558 3769 3817 3497 3423 3497 3400 3412 3503 3478 3325 3547 3566 3401 3302 3001 2800 2623 2518 2646 2408 2245 2274 1906 2261 2464 2505 2556 2424
0 0 0 0 0 0 0 0 0 0 0 0 0 0 0 0 2 1 2 0 0 4 24 0 52 92 163 270 238 338 20 567 681 938 964 926 938 1054 1268 1158 1324 1311 1300 1466 1556 1609 1666 1479 1466 1842 2273 2506 2514 2562 2652 2897 3158 3468 3761 4006 3845 3756 3677 3548 3597 3745 3792 3626 3677 3676 3450 3257 3084 3044 3066 3009 2673 2102 1999 1820 1582 1618 2006 2425 2431 2042
0 0 0 0 0 0 0 0 0 0 0 0 0 0 0 0 0 3 2 3 0 0 0 5 28 96 75 120 143 153 207 357 708 782 866 801 1078 988 1164 1182 1245 1273 1260 1394 1795 1782 1825 1821 1538 1660 1976 2412 2393 2500 2534 2765 3036 3420 3713 4028 4239 4090 3856 3686 3606 3730 3994 3900 3786 3747 3596 3199 3058 2789 2922 3024 3278 2618 2098 1655 1633 1594 1770 2174 2566 1881
0 0 0 0 0 0 0 0 0 0 0 0 0 0 0 0 0 0 0 0 0 0 0 0 16 109 157 70 37 45 172 191 328 605 911 787 728 1054 1156 1302 1330 1345 1411 1353 1540 2003 1880 1724 1613 1514 1863 2274 2394 2485 2493 2622 2971 3326 3768 4059 4294 4139 3838 3674 3660 3823 4004 4059 3722 3758 3672 3408 3144 2942 2781 2425 2578 2876 2585 2197 2169 2115 2042 2178 2359 2357
0 0 0 0 0 0 0 0 0 0 0 0 0 0 0 0 0 0 0 2 8 7 0 0 0 3 70 80 3 14 98 185 124 291 680 828 612 1046 1162 1313 1317 1504 1469 1341 1778 2261 2088 1764 1537 1537 1686 2144 2416 2327 2412 2502 2730 3076 3676 4200 4446 4475 4068 3884 3944 3961 4098 4163 3820 3704 3559 3525 3447 3182 2896 2190 2114 2581 2702 2716 2421 2518 2576 2111 2214 2360
0 0 0 0 0 0 0 0 0 0 0 0 0 0 0 0 2 1 0 2 21 22 1 0 0 0 2 9 0 62 34 84 335 412 554 1142 862 676 1188 969 1202 1480 1696 1561 1701 2188 2371 2017 1598 1573 1790 2075 2338 2200 2239 2334 2600 2986 3697 4370 4616 4669 4274 3885 4065 4103 4087 4047 3980 3689 3629 3571 3525 3501 3359 3124 2504 2576 2742 2932 2624 2515 2473 2192 1755 1432
0 0 0 0 0 0 0 0 0 0 0 0 0 0 0 0 0 1 0 0 12 10 21 0 0 0 0 0 0 2 48 79 182 296 250 284 196 653 339 100 736 618 1353 1740 1572 1902 2249 2251 1790 1576 1742 1999 2349 2219 2148 2332 2649 2871 3596 4331 4658 4668 4609 4109 4056 4309 4090 3840 3912 3660 3690 3689 3736 3620 3410 3332 3097 2730 2715 2728 2602 2285 1881 1649 1497 1571
0 0 0 0 0 0 0 0 0 0 0 0 0 0 0 0 0 1 0 1 0 0 5 0 0 1 0 6 39 1 0 25 157 114 24 34 339 791 689 974 1524 1344 1118 1674 1804 1766 2046 2192 1956 1666 1860 2203 2560 2382 2066 2273 2642 2903 3501 4206 4638 4771 4742 4640 4403 4439 4472 4012 3834 3832 3644 3776 3890 3918 3639 3600 3410 2980 2773 2639 2579 2053 1756 1804 1380 1405
0 0 0 0 0 0 0 0 0 0 0 0 0 0 0 0 0 0 2 0 1 0 0 2 0 0 0 8 0 0 0 0 18 4 0 0 0 68 736 1438 810 737 435 594 1449 1787 2002 2200 2031 1872 1893 2259 2618 2442 2026 2256 2754 3061 3531 4244 4686 5026 5048 4882 4617 4654 4727 4410 4040 4177 3940 3802 3679 3940 3968 3702 3410 2966 2865 2860 2698 2145 1684 1806 1592 1512
0 0 0 0 0 0 0 0 0 0 0 0 0 0 0 0 0 1 1 4 0 0 0 0 0 0 0 7 0 0 0 3 0 2 4 0 0 2 440 1373 1270 720 399 731 2140 1920 1776 2054 2176 1927 1882 2202 2550 2460 2105 2123 2524 3112 3521 4206 4765 5216 5428 5325 4982 4763 4712 4720 4474 4334 4346 3986 3843 3922 4093 3888 3423 3155 3006 2683 2560 2488 2050 1763 1763 1648
0 0 0 0 0 0 0 0 0 0 0 0 0 0 0 0 0 0 14 11 16 2 0 0 0 0 0 34 16 0 0 0 0 0 0 0 0 0 74 913 1131 543 509 1159 1923 2164 1902 1946 2212 2016 1980 2176 2344 2518 2254 2170 2641 2950 3342 4078 4800 5068 5450 5558 5434 5236 5192 4844 4686 4550 4489 4204 3990 3936 4011 4024 3844 3496 3232 3140 2739 2644 2547 2166 1962 1806
0 0 0 0 0 0 0 0 0 0 0 0 0 0 0 0 0 0 28 20 8 13 3 0 0 0 0 0 1 4 0 0 0 0 0 2 10 8 0 0 464 1123 1108 1485 2204 2415 2260 1977 2286 2346 2234 2061 2292 2335 2407 2794 2910 3034 3352 4028 4852 5060 5475 5633 5468 5280 5104 5185 4917 4924 4636 4452 4212 4230 4124 3904 3838 3486 3470 3294 3045 2780 2678 2472 2236 1763
0 0 0 0 0 0 0 0 0 0 0 0 0 0 0 0 0 0 0 22 7 14 6 0 0 0 0 0 0 1 0 0 0 0 0 6 10 0 0 0 58 456 1353 1841 2270 2578 2568 2346 2391 2520 2421 2337 2466 2798 3084 3277 3240 3231 3354 4223 4893 5086 5306 5566 5562 5379 5277 5148 4942 4976 4884 4651 4310 4250 4120 3891 3819 3831 3534 3453 3292 3004 2832 2684 2223 1646
0 0 0 0 0 0 0 0 0 0 0 0 0 0 0 0 0 0 0 2 9 3 8 25 0 0 3 2 37 8 2 12 2 0 0 2 1 0 0 148 443 924 1492 2013 2130 2507 2675 2620 2699 2726 2510 2563 2881 3456 3441 3340 3554 3468 3662 4280 4671 4924 5048 5398 5294 5206 5308 5344 5131 4926 5030 4936 4620 4408 4323 4089 3897 3992 3844 3354 3419 3151 2755 2762 2264 1765
0 0 0 0 0 0 0 0 0 0 0 0 0 0 0 0 0 0 0 0 0 3 24 10 15 0 0 0 0 0 0 1 0 0 0 0 0 0 2 2 310 772 952 1854 2157 2304 2628 2798 2870 2824 2700 2653 2952 3427 3538 3581 3640 3567 3732 4207 4356 4701 4964 5171 5183 5182 5422 5218 4930 4808 5002 5145 4998 4750 4554 4374 4151 3906 3949 3806 3413 3438 2770 2870 2172 1820
0 0 0 0 0 0 0 0 0 0 0 0 0 0 0 0 0 0 0 0 0 0 8 11 6 0 0 0 0 0 0 0 0 0 0 0 0 2 10 0 28 412 1224 1929 2198 2368 2469 2768 2914 2914 2745 2599 2781 3376 3452 3411 3541 3252 3376 3840 4061 4567 4692 4865 4941 5112 5334 5271 5172 5150 5180 5134 5144 4899 4724 4497 4303 4223 4205 4121 3781 3532 2895 2898 2412 2058
0 0 0 0 0 0 0 0 0 0 0 0 0 0 0 0 0 0 0 0 0 0 1 14 8 5 0 0 1 0 0 0 0 0 0 0 1 28 23 18 0 130 1558 1935 2008 2212 2505 2623 2789 2930 2881 2598 2567 3266 3294 3184 3118 2854 3035 3432 3886 4005 4290 4128 4721 5216 5199 5332 5206 5030 5155 5090 5191 5006 4890 4652 4554 4395 4302 4151 3812 3546 3311 2899 2631 2325
0 0 0 0 0 0 0 0 0 0 0 0 0 0 0 0 0 0 0 0 0 0 0 0 6 5 2 15 22 2 0 0 0 0 0 0 0 2 6 22 10 1002 1841 1737 1810 1815 2269 2732 2764 2785 3002 2937 2802 3260 3219 3085 2833 2790 2825 3213 3705 3611 3973 3583 4196 4852 5294 5136 5222 5166 5172 5054 5262 5328 4906 4820 4524 4267 4084 3882 3636 3500 3324 2905 2517 2520
0 0 0 0 0 0 0 0 0 0 0 0 0 0 0 0 0 0 0 0 0 0 0 0 0 0 0 3 6 4 11 0 0 0 0 0 0 0 8 9 1578 2455 2460 1936 1612 1416 1834 2543 3017 3397 3308 3570 3510 3731 3426 3230 3056 2762 2739 3039 3418 3444 3642 3490 3843 4506 5203 5276 5253 5250 5294 5126 5106 5072 4748 4578 4652 4267 3934 3434 3406 3340 3261 2902 2285 2443
0 0 0 0 0 0 0 0 0 0 0 0 0 0 0 0 0 0 0 0 0 0 0 0 0 0 0 2 5 1 0 0 0 0 0 0 4 0 21 2 30 1161 3012 2342 1897 1799 1962 2373 3099 3808 3959 4220 4144 3410 3822 3455 3155 2948 3104 3072 3148 3294 3564 3452 3504 4215 5052 5153 4906 5076 5371 5073 4907 5032 4812 4546 4326 4177 3600 3141 3220 3284 3102 2926 2720 2404
0 0 0 0 0 0 0 0 0 0 0 0 0 0 0 0 0 0 0 0 0 0 0 0 0 2 0 57 0 0 0 2 0 0 0 0 0 2 8 14 2131 2782 3487 2765 2256 2128 2158 3248 3808 4270 4205 4522 3771 3557 4226 4148 3411 3336 3381 3252 3039 3290 3583 3529 3547 3963 4795 4994 4696 4981 5044 5099 4849 4929 4975 4804 4233 3878 3458 3064 3230 3248 3257 3323 2826 2288
0 0 0 0 1 16 2 8 0 0 0 0 0 0 0 0 0 0 0 0 0 0 0 0 0 1 6 0 8 0 0 16 5 0 0 0 0 11 144 2806 2954 3504 3738 2863 2614 2402 2924 3678 3928 3890 4147 4026 3717 3704 3957 3682 3556 3421 3833 3631 3075 3243 3551 3858 3763 4584 4850 5086 4681 4768 5105 5182 4976 4957 4931 4821 4296 3802 3280 3133 3111 3120 2924 2942 2736 2328
0 0 0 0 0 5 0 0 0 0 0 0 0 0 0 0 0 0 0 0 0 0 0 0 0 0 0 0 7 20 0 15 24 2 2 7 2 0 195 3963 3623 3639 3588 3072 2712 2616 2813 3202 3766 4022 4109 4100 3963 3946 4088 4084 3854 3786 4010 3843 3433 3338 3626 3912 4259 4965 5149 5206 4862 5050 5120 5316 5063 5074 5041 4742 4460 3839 3456 3408 3384 3502 2927 2836 2189 2117
0 0 0 0 0 0 0 0 0 0 0 2 0 0 0 0 0 0 0 0 0 0 0 0 0 0 0 0 0 14 6 28 10 5 2 2 2 0 124 1772 3078 3282 3384 2955 2889 2949 3099 3215 4126 4252 4230 4410 4100 4041 4232 4203 4113 4152 4257 4025 3878 3472 3791 4266 4839 4707 4905 5284 5265 5266 5394 5528 5438 5206 4844 4538 4380 4044 3747 3620 3626 3630 3502 3043 2530 2092
0 0 0 0 0 0 0 0 0 0 0 0 0 0 0 0 0 0 0 0 0 0 0 0 0 0 0 0 0 0 0 3 22 18 0 0 7 58 8 76 2520 2595 3008 2987 3222 3135 3551 3725 4438 4696 4638 4594 4170 4352 4403 4503 4432 4285 4364 4334 3880 4012 4249 4691 4880 4821 5110 5351 5395 5422 5519 5706 5488 5154 4862 4582 4400 4271 4068 3897 3794 3587 3578 3198 2647 2188
0 0 0 26 12 0 0 0 0 0 0 0 0 0 0 0 0 0 0 0 0 0 0 0 0 0 0 0 0 0 0 0 20 19 4 13 0 0 0 0 44 207 348 1900 3683 3496 3774 4002 4785 4988 4663 4498 4360 4481 4724 4802 4706 4454 4229 4303 4220 4558 4447 4561 5035 5074 5091 5330 5586 5706 5679 5532 5460 5127 4745 4484 4344 4316 4125 3864 3680 3672 3664 3304 3022 2180
0 0 4 26 4 10 13 16 6 0 0 0 0 0 1 0 0 0 0 0 0 0 0 0 0 0 0 0 0 0 0 0 0 7 100 60 1 46 0 0 0 0 50 124 1478 3727 4058 4262 4934 5088 4919 4773 4567 4713 4744 5016 4774 4762 4656 4760 4513 4178 4317 4789 5104 5162 5320 5736 5850 5686 5547 5478 5264 4958 4654 4286 4081 3827 3722 3658 3543 3613 3632 3235 2926 2164
0 0 4 123 122 67 22 2 18 51 8 0 0 0 0 0 0 0 0 0 0 0 0 0 0 0 0 0 0 0 0 0 0 0 26 76 373 122 27 0 0 6 1 312 1692 3902 4108 4176 4604 5206 5128 4998 4672 4724 4709 4933 4869 4980 4778 5031 4988 4632 4557 5026 5320 5540 5684 5745 5900 5580 5494 5289 5090 4827 4501 4150 3896 3755 3076 3314 3394 3388 3258 2866 2546 1991
4 0 35 47 69 97 96 121 119 114 54 0 0 0 0 0 0 6 0 0 1 0 0 0 0 0 0 0 0 0 0 0 0 65 28 76 160 350 2 23 0 0 0 0 468 1176 4057 4147 4050 4855 4963 4979 4823 4629 4708 5072 4997 5004 5026 5123 5190 4848 5002 5269 5486 5785 5932 5918 5704 5577 5263 4976 4525 4632 4239 4253 3946 3554 3559 3351 3422 3318 3112 2888 2782 2241
0 2 30 20 40 130 174 206 181 114 17 52 16 0 0 0 0 0 0 8 5 15 4 4 0 2 0 0 0 0 0 0 0 0 0 0 42 0 70 20 93 159 79 219 1234 902 3176 4368 4137 4748 4831 4619 4493 4640 4658 4911 5184 5105 5125 5331 5269 5112 5193 5206 5618 5993 6026 5833 5691 5288 5098 4731 4467 4230 4329 4169 3747 3512 3368 3265 3341 3399 3209 2960 2680 2372
3 8 169 176 194 274 287 242 128 28 130 59 32 13 0 2 2 0 0 2 9 14 5 12 24 12 3 0 0 0 0 0 0 0 12 0 0 0 0 0 12 6 0 398 1829 3170 4099 4108 4145 4616 4701 4404 4325 4580 4794 4949 5106 5104 5425 5466 5428 5160 5257 5392 5686 5968 5972 5773 5581 5292 4799 4734 4251 3599 4097 3756 3548 3410 3332 3299 3310 3157 3144 2976 2548 2188
39 153 318 349 248 297 123 73 92 113 154 47 96 511 200 457 729 602 313 178 68 424 113 10 19 20 35 11 0 0 0 0 0 0 0 0 0 0 0 0 0 0 2 1232 1198 3226 4717 4356 4481 4616 4652 4421 4671 4645 4699 4952 5164 5246 5430 5511 5336 5328 5416 5498 5586 5881 5874 5734 5559 5308 4964 4666 4104 3692 3694 3628 3494 3284 3114 3074 3069 2983 2997 2734 2450 2034
0 109 322 89 191 120 132 329 251 312 324 406 799 305 456 276 225 344 431 341 98 20 0 12 29 20 27 6 1 0 0 0 0 0 0 0 24 15 257 156 153 194 477 1428 2962 3937 4891 4433 4447 4520 4211 4586 4578 4469 4903 4930 5236 5382 5523 5333 5396 5500 5583 5526 5724 5767 5900 5852 5444 5195 4878 4616 4013 3500 3473 3566 3398 3127 2792 2777 2840 2829 2682 2510 2065 1788
0 0 188 312 104 168 261 191 286 386 512 1367 966 396 281 217 248 194 203 206 284 1412 1296 1568 1198 1474 959 10 2 0 0 0 0 0 0 18 12 61 91 116 150 61 662 2253 3094 3931 4113 4049 4110 4310 4539 4840 4512 4495 4835 5084 5277 5317 5355 5348 5188 5138 5198 5188 5240 5386 5661 5434 5260 5002 4622 4068 3752 3479 3155 3137 3134 2883 2796 2810 2774 2614 2394 2211 1958 1706
0 0 22 128 182 210 272 312 330 174 312 919 879 548 236 134 65 193 191 124 2320 1846 1468 1686 1793 1613 1625 1698 975 0 0 0 0 0 0 0 0 0 0 690 586 158 530 2001 2467 3588 3935 3931 4216 4536 4661 4406 4546 4564 4740 4782 5267 5272 5035 4495 4532 4542 4717 4798 4933 5276 5441 5263 5002 4687 4231 3832 3616 3314 2953 2850 3032 2940 2880 2782 2545 2474 1998 1780 1620 1655
0 0 3 0 11 49 68 288 164 220 293 477 411 213 218 54 180 449 291 1010 1221 1626 1595 1747 1541 1742 1545 1472 1205 79 0 0 0 0 0 0 0 0 472 1151 1006 648 1381 2401 3097 3796 4208 4542 4754 4424 4502 4395 4044 3770 4080 4877 4953 4721 4340 4421 4627 4573 4760 4910 5190 5289 5336 4990 4834 4444 3896 3417 3354 3020 2686 2832 2838 2811 2433 2300 2433 1923 1856 1628 1552 1615
0 0 0 0 2 0 16 92 34 206 351 391 286 217 194 135 126 240 1682 1151 1597 1162 1438 1364 1813 1796 1875 1590 1209 1030 522 205 0 0 0 204 973 1216 1269 1560 1697 2390 2984 2995 3768 3775 3960 3933 3861 3651 3214 3483 3580 3816 4406 4876 4908 4429 4506 4537 4550 4737 4718 5096 5097 5255 5112 4754 4360 3974 3442 3174 3050 2817 2636 2705 2883 2698 2544 2460 2410 2082 1667 1491 1592 1604
0 0 0 0 0 7 38 20 26 4 725 242 312 230 629 348 141 1068 1072 931 808 862 940 1288 1528 1924 2034 1902 1430 1006 1268 714 52 6 202 502 636 2170 2336 2342 2658 2554 2447 3091 3270 3598 3521 3489 3268 3276 4152 4040 4118 4447 4574 4632 4542 4546 4544 4695 4612 4698 4915 5063 5002 4951 4698 4349 4145 3568 3255 2916 2722 2359 2703 2706 2625 2566 2461 2137 1790 1754 1471 1423 1439 1408
3 0 0 0 17 10 0 0 3 30 712 405 485 399 1127 1170 769 1212 699 1000 1014 1198 1562 1229 1455 1728 1979 1799 1706 1299 886 868 850 870 816 762 1781 2628 2852 2968 2939 3396 4410 4088 3830 3418 3167 3754 4288 4169 3808 3948 4287 4494 4783 5041 4745 4632 4733 4688 4736 4806 4772 4692 4561 4512 4346 3953 3896 3457 3096 2751 2413 2425 2318 2378 2510 2637 2210 1739 1540 1449 1422 1436 1307 1307
158 10 14 1 0 16 18 12 1119 648 471 434 486 883 778 901 781 866 1145 1038 1080 1106 1328 1341 1556 1600 1634 1240 1426 1524 1212 1202 1308 1277 2010 2358 2298 2788 3503 3691 3566 3311 2891 2542 2886 3698 4054 4222 4378 4364 4494 4649 4792 4660 4570 4527 4734 4768 4748 4658 4500 4333 4417 4284 4039 3750 3711 3690 3581 3198 2900 2566 2367 2190 2223 2295 2406 2292 2095 1771 1385 1464 1389 1284 1247 1214
343 514 931 624 756 758 914 894 602 588 414 632 350 458 428 476 692 830 1023 1138 922 1077 1191 1386 1515 1487 1287 1663 1608 1974 2459 2596 2676 2451 2684 2566 3012 3368 3562 3607 3692 3950 3765 3831 4194 4179 4236 4155 4155 4300 4302 4190 4124 4363 4693 4829 4848 4640 4416 4226 4158 4245 4124 3837 3715 3649 3521 3473 3212 2938 2594 2438 2306 2316 2159 2207 2234 1970 1934 1679 1330 1253 1258 1212 1129 1034
390 277 299 458 1253 176 807 800 1104 734 529 406 435 374 420 430 533 729 884 1029 988 906 1068 1272 1466 1536 1533 1902 1910 2288 2310 2281 2170 2585 3511 3452 3350 3418 3461 3516 3347 3570 3763 3816 3758 3606 3424 3229 3418 3827 4070 4148 3993 3898 4023 4007 3833 3954 4084 4084 4011 3940 3846 3768 3598 3504 3340 3185 2874 2656 2368 2168 2029 2026 2092 2039 1841 1836 1575 1236 1200 1190 1141 1110 958 1116
306 262 235 297 858 484 866 1238 1311 1291 1012 699 588 641 467 449 461 503 626 671 455 491 820 1214 1435 1404 1212 1523 1388 1786 1842 1842 2262 2544 2540 2701 2779 3313 3482 3637 3778 3490 3304 3274 3333 3341 3396 3441 3593 3688 3761 3872 4045 4071 3806 3556 3577 3708 3551 3426 3412 3438 3426 3267 3146 2980 2892 2586 2417 2256 2070 2031 2082 2078 1769 1904 1670 1388 1620 1492 1360 1382 1462 1358 1337 1248
192 116 300 240 180 826 1142 1070 856 738 655 566 535 547 526 438 339 249 240 246 277 452 583 754 736 1239 1293 1147 1168 1446 1438 1498 1697 1929 2021 2178 2225 2190 2391 3124 3396 3557 3400 3513 3619 3770 3846 3758 3644 3565 3519 3512 3545 3516 3422 3336 3242 3231 3312 3364 3389 3192 3119 2890 2598 2558 2594 2410 2030 1902 1867 1987 2162 1835 1720 1424 1255 1226 1283 1197 1290 1448 1531 1209 1408 1700
94 88 185 62 106 154 409 690 795 518 478 651 518 514 308 110 98 119 111 310 418 498 600 582 546 517 736 864 1010 988 1110 1222 1288 1430 1637 1752 2129 2383 2456 2437 2499 2778 2971 3036 2936 3046 3183 3261 3204 3022 2858 2973 3082 3130 3151 3102 3070 3002 3042 3199 3074 3001 2857 2548 2454 2479 2200 2034 1893 1833 1716 1752 1884 1740 1573 1348 1164 1109 1073 1009 1042 1062 1094 1100 1019 902
66 106 192 215 23 74 247 574 779 455 690 632 537 465 448 246 88 10 0 342 341 383 462 602 614 560 570 631 740 894 833 908 768 808 1120 1476 1884 1958 2124 2229 2065 2077 2479 2724 2948 2998 3108 3242 3324 3300 3298 3108 2986 2957 2818 2705 2542 2544 2540 2870 2921 2867 2797 2530 2399 2205 1990 1805 1673 1476 1586 1650 1688 1714 1734 1328 1228 1141 1057 998 982 971 947 934 911 768
Wind_Speed
nan nan nan nan nan nan nan nan nan nan nan nan nan nan nan nan nan nan nan nan nan nan nan 6 5 4 nan 11 8 9 9 6 6 5 3 3 4 5 6 7 7 6 6 5 7 7 6 6 3 3 3 4 6 5 7 7 8 8 7 6 7 5 5 5 5 6 7 8 8 7 7 6 6 6 6 6 7 7 6 7 8 10 9 7 14 14
nan nan nan nan nan nan nan nan nan nan nan nan nan nan nan nan nan nan nan nan nan nan nan nan 7 5 4 6 10 9 8 7 5 4 4 3 4 3 5 7 8 7 5 7 6 8 7 5 6 4 3 5 6 6 7 8 8 8 8 7 7 6 5 5 6 6 7 8 7 6 5 4 4 5 6 6 6 6 6 6 6 8 11 12 12 14
nan nan nan nan nan nan nan nan nan nan nan nan nan nan nan nan nan nan nan nan nan nan nan nan 7 8 5 5 9 11 8 7 6 4 3 3 2 2 3 5 6 6 6 7 8 10 9 11 10 7 5 5 6 7 7 7 8 8 7 6 7 6 6 5 6 7 7 6 5 4 3 4 3 4 4 4 4 4 6 8 8 8 8 11 13 14
nan nan nan nan nan nan nan nan nan nan nan nan nan nan nan nan nan nan nan nan nan nan nan nan nan nan 8 nan 8 10 10 9 6 4 3 3 2 1 2 3 3 5 5 7 8 11 11 12 11 10 8 8 7 7 7 8 8 7 6 6 7 7 7 6 6 6 6 6 4 3 2 3 2 3 5 6 6 7 7 9 10 11 12 14 14 16
nan nan nan nan nan nan nan nan nan nan nan nan nan nan nan nan nan nan nan nan nan nan nan nan nan 13 11 nan 10 10 11 11 9 6 4 4 4 2 1 2 3 5 6 6 7 9 11 11 12 12 11 11 9 9 9 9 9 6 8 7 7 6 7 6 6 6 5 5 4 3 3 2 4 4 4 7 8 8 10 10 13 13 15 16 16 18
nan nan nan nan nan nan nan nan nan nan nan nan nan nan nan nan nan nan nan nan nan nan nan nan 18 15 12 9 9 nan 13 11 11 9 7 6 5 4 2 2 4 4 4 5 6 8 10 11 11 12 14 13 11 11 10 10 10 8 7 7 7 5 5 5 6 6 5 4 4 5 5 6 7 7 8 9 10 12 13 13 14 16 18 18 19 18
nan nan nan nan nan nan nan nan nan nan nan nan nan nan nan nan nan nan nan nan nan nan nan nan nan nan 14 12 11 11 nan 11 14 10 9 10 7 4 4 4 4 5 5 6 7 8 10 11 12 13 14 14 13 12 11 11 11 11 10 9 8 6 5 5 6 7 5 5 5 6 6 7 8 10 11 11 12 13 15 17 18 19 21 20 18 19
nan nan nan nan nan nan nan nan nan nan nan nan nan nan nan nan nan nan nan nan nan nan nan nan nan nan nan 15 12 9 9 9 12 12 10 12 9 4 4 5 6 7 8 8 9 9 10 11 12 13 14 14 13 13 13 12 12 13 12 12 11 9 8 7 7 8 7 6 7 7 8 8 10 10 12 14 14 15 16 17 19 18 19 20 17 16
nan nan nan nan nan nan nan nan nan nan nan nan nan nan nan nan nan nan nan nan nan nan nan nan nan 18 21 nan nan nan 11 10 9 12 14 11 12 10 4 3 5 7 10 10 11 10 11 11 13 13 13 13 14 14 14 13 13 13 13 14 14 12 11 10 11 11 11 9 9 10 10 11 11 12 13 15 16 16 18 18 19 18 17 16 16 15
nan nan nan nan nan nan nan nan nan nan nan nan nan nan nan nan nan nan nan nan nan nan nan nan nan nan nan nan nan nan nan 12 11 13 16 15 15 16 10 7 4 6 9 10 11 12 11 11 12 13 13 14 13 12 14 15 15 14 14 15 15 15 14 14 14 13 13 13 11 12 12 13 14 14 15 16 18 18 18 19 18 18 15 14 16 15
nan nan nan nan nan nan nan nan nan nan nan nan nan nan nan nan nan nan nan nan nan nan nan nan nan nan nan nan nan nan nan nan 15 16 16 21 16 14 15 9 9 6 6 10 12 14 14 13 13 15 15 14 14 12 15 16 16 16 16 16 17 16 15 16 16 16 15 14 14 13 14 15 15 17 17 18 17 17 18 18 17 16 15 13 13 15
nan nan nan nan nan nan nan nan nan nan nan nan nan nan nan nan nan nan nan nan nan nan nan nan nan nan nan nan nan nan nan nan 15 14 14 18 15 14 15 nan 11 4 4 5 13 15 17 17 15 14 15 15 15 14 16 16 16 17 17 18 18 17 17 17 16 17 15 14 15 14 15 16 16 17 17 18 17 17 18 18 16 15 15 14 14 14
nan nan nan nan nan nan nan nan nan nan nan nan nan nan nan nan nan nan nan nan nan nan nan nan nan nan nan nan nan nan nan nan 17 14 nan nan 18 14 14 16 17 11 4 3 10 17 20 20 18 15 15 16 16 14 16 17 17 17 18 19 20 19 18 18 18 17 16 15 15 15 16 16 16 17 18 17 16 17 17 16 16 15 15 16 16 18
nan nan nan nan nan nan nan nan nan nan nan nan nan nan nan nan nan nan nan nan nan nan nan nan nan nan nan nan nan nan nan nan nan nan nan nan nan nan 14 15 17 15 10 10 14 20 23 23 22 19 17 16 15 16 16 17 16 16 17 19 20 20 20 19 19 18 16 16 16 17 17 17 17 18 19 17 16 17 17 17 17 17 18 18 19 21
nan nan nan nan nan nan nan nan nan nan nan nan nan nan nan nan nan nan nan nan nan nan nan nan nan nan nan nan nan nan nan nan nan nan nan nan nan nan 18 18 17 18 12 9 16 21 24 25 25 22 20 18 16 18 17 16 15 15 16 18 20 20 21 20 20 18 18 18 18 19 19 18 18 19 18 17 16 16 17 18 19 19 19 20 21 21
nan nan nan nan nan nan nan nan nan nan nan nan nan nan nan nan nan nan nan nan nan nan nan nan nan nan nan nan nan nan nan nan nan nan nan nan nan nan nan 14 14 12 13 18 19 20 23 23 24 23 22 20 19 20 18 17 16 15 15 17 19 19 20 20 20 20 20 20 20 20 20 19 19 19 18 17 17 17 18 19 20 21 21 21 23 22
nan nan nan nan nan nan nan nan nan nan nan nan nan nan nan nan nan nan nan nan nan nan nan nan nan nan nan nan nan nan nan nan nan nan nan nan nan nan nan nan 15 11 12 16 18 18 20 20 22 23 24 23 22 20 19 18 18 17 17 17 19 19 19 20 20 20 20 21 21 20 19 19 19 19 19 17 18 18 19 21 21 21 23 24 25 26
nan nan nan nan nan nan nan nan nan nan nan nan nan nan nan nan nan nan nan nan nan nan nan nan nan nan nan nan nan nan nan nan nan nan nan nan nan nan nan nan nan 11 11 15 17 18 19 20 23 24 24 25 25 23 21 21 20 19 19 20 21 20 20 20 20 20 20 20 20 19 18 18 19 19 18 18 19 20 20 21 22 23 24 26 28 28
nan nan nan nan nan nan nan nan nan nan nan nan nan nan nan nan nan nan nan nan nan nan nan nan nan nan nan nan nan nan nan nan nan nan nan nan nan nan nan 18 13 11 8 11 19 18 17 18 20 22 24 25 25 24 23 23 23 21 21 21 21 21 20 21 20 19 18 19 17 16 17 18 19 18 18 18 19 21 20 22 24 25 26 28 29 29
nan nan nan nan nan nan nan nan nan nan nan nan nan nan nan nan nan nan nan nan nan nan nan nan nan nan nan nan nan nan nan nan nan nan nan nan nan nan nan nan 19 14 5 8 17 19 19 19 19 21 23 25 26 26 25 26 24 25 23 22 20 20 20 21 20 20 18 18 17 17 17 18 19 19 19 19 19 20 21 22 25 27 29 30 31 32
nan nan nan nan nan nan nan nan nan nan nan nan nan nan nan nan nan nan nan nan nan nan nan nan nan nan nan nan nan nan nan nan nan nan nan nan nan nan nan nan nan 10 6 8 14 19 21 19 18 18 18 21 24 25 25 26 27 25 23 23 22 22 23 23 21 21 19 19 19 19 19 20 20 20 19 19 19 21 23 25 26 28 28 30 32 34
nan nan nan nan nan nan nan nan nan nan nan nan nan nan nan nan nan nan nan nan nan nan nan nan nan nan nan nan nan nan nan nan nan nan nan nan nan nan nan nan nan 11 8 10 11 14 19 20 20 19 17 19 23 26 28 27 26 27 26 24 23 23 23 23 22 21 21 20 20 20 20 21 20 19 18 20 21 23 25 27 28 28 27 29 31 34
nan nan nan nan nan nan nan nan nan nan nan nan nan nan nan nan nan nan nan nan nan nan nan nan nan nan nan nan nan nan nan nan nan nan nan nan nan nan nan nan nan 20 12 11 11 12 17 20 21 22 21 20 22 25 28 28 28 27 28 27 25 24 24 24 23 22 21 21 20 20 20 20 19 20 21 22 23 26 27 28 28 27 27 29 31 34
nan nan nan nan nan nan nan nan nan nan nan nan nan nan nan nan nan nan nan nan nan nan nan nan nan nan nan nan nan nan nan nan nan nan nan nan nan nan nan nan 38 20 13 14 13 13 18 20 22 23 23 21 20 23 27 28 28 28 28 29 28 27 26 24 22 22 22 21 20 21 21 20 20 21 23 24 25 27 27 26 26 27 29 31 32 35
nan nan nan nan nan nan nan nan nan nan nan nan nan nan nan nan nan nan nan nan nan nan nan nan nan nan nan nan nan nan nan nan nan nan nan nan nan nan nan nan nan 20 20 17 14 15 19 20 21 21 21 20 20 22 25 27 29 29 29 29 29 27 27 24 22 22 22 21 22 22 22 22 22 22 23 24 25 27 26 25 26 28 32 34 34 36
nan nan nan nan nan nan nan nan nan nan nan nan nan nan nan nan nan nan nan nan nan nan nan nan nan nan nan nan nan nan nan nan nan nan nan nan nan nan nan nan 25 19 21 17 15 17 17 19 22 21 21 19 19 21 24 26 29 30 30 30 29 27 25 24 23 22 22 22 22 22 23 23 23 24 25 24 24 26 26 27 28 30 33 36 37 37
nan nan nan nan nan nan nan nan nan nan nan nan nan nan nan nan nan nan nan nan nan nan nan nan nan nan nan nan nan nan nan nan nan nan nan nan nan nan 32 42 31 25 23 17 16 19 20 21 20 21 23 22 20 21 23 26 28 29 29 30 30 28 25 23 21 21 23 23 22 21 22 23 23 22 22 23 23 25 26 28 30 31 33 35 37 39
nan nan nan nan nan nan nan nan nan nan nan nan nan nan nan nan nan nan nan nan nan nan nan nan nan nan nan nan nan nan nan nan nan nan nan nan nan nan 38 41 34 30 26 23 21 19 18 20 21 21 24 24 22 21 23 25 26 27 30 31 30 29 25 22 21 22 23 23 21 21 22 22 22 21 21 22 25 26 27 28 29 30 32 35 37 39
nan nan nan nan nan nan nan nan nan nan nan nan nan nan nan nan nan nan nan nan nan nan nan nan nan nan nan nan nan nan nan nan nan nan nan nan nan nan 30 30 30 30 29 25 22 22 21 20 20 21 24 25 24 24 24 25 26 27 28 29 29 29 26 24 23 23 23 22 21 20 20 21 20 21 23 25 28 29 29 29 29 31 34 36 37 39
nan nan nan nan nan nan nan nan nan nan nan nan nan nan nan nan nan nan nan nan nan nan nan nan nan nan nan nan nan nan nan nan nan nan nan nan nan nan nan nan 28 29 32 30 26 23 22 21 22 23 24 24 24 25 26 26 26 27 29 30 30 28 26 24 23 22 21 21 19 19 20 21 21 23 25 26 28 30 30 30 31 33 35 36 37 39
nan nan nan nan nan nan nan nan nan nan nan nan nan nan nan nan nan nan nan nan nan nan nan nan nan nan nan nan nan nan nan nan nan nan nan nan nan nan nan nan nan 25 31 34 31 27 24 22 24 25 23 24 26 27 26 25 25 26 28 29 29 27 26 24 22 21 19 19 19 20 21 21 23 24 27 28 28 29 31 32 33 34 35 37 37 38
nan nan nan nan nan nan nan nan nan nan nan nan nan nan nan nan nan nan nan nan nan nan nan nan nan nan nan nan nan nan nan nan nan nan 31 nan nan nan nan nan nan nan nan 32 35 30 25 22 24 24 23 25 28 29 26 24 24 25 25 27 27 26 26 23 22 21 20 21 22 22 22 22 24 25 27 29 30 30 32 34 35 35 37 39 40 39
nan nan nan 33 30 nan nan nan nan nan nan nan nan nan nan nan nan nan nan nan nan nan nan nan nan nan nan nan nan nan nan nan nan nan nan nan 35 30 nan nan nan nan nan 36 41 36 26 21 20 21 22 25 28 29 26 25 24 23 24 26 25 24 24 23 22 22 23 24 24 22 22 24 25 26 27 29 30 31 31 34 37 39 41 44 44 43
nan nan nan nan nan nan nan 18 17 20 nan nan nan nan nan nan nan nan nan nan nan nan nan nan nan nan nan nan nan nan nan nan nan nan nan nan 41 37 nan nan nan nan nan nan 33 31 26 22 20 21 22 24 25 29 29 26 24 24 26 26 26 24 23 22 23 24 26 26 25 23 25 26 28 29 30 31 32 32 34 35 37 41 44 45 46 48
nan nan nan nan nan 30 27 23 22 20 nan nan nan nan nan nan nan nan nan nan nan nan nan nan nan nan nan nan nan nan nan nan nan nan nan nan nan nan nan nan nan 23 nan 36 37 29 24 19 19 22 22 25 27 30 31 29 28 28 28 27 28 27 26 25 26 27 28 29 28 29 31 32 32 31 33 35 34 34 35 37 39 42 43 45 48 50
nan nan 36 31 34 35 30 29 28 nan 28 nan nan nan nan nan nan nan nan nan nan nan nan nan nan nan nan nan nan nan nan nan nan nan nan nan nan nan nan nan nan nan nan 34 34 28 21 17 19 21 23 27 31 32 32 32 31 31 31 30 31 30 30 30 29 30 32 33 33 34 36 37 36 34 35 36 37 37 38 39 41 43 44 44 48 51
nan 36 33 33 36 31 29 nan nan 32 28 nan nan 40 39 36 39 41 36 31 nan 35 27 nan nan nan nan nan nan nan nan nan nan nan nan nan nan nan nan nan nan nan nan 38 31 25 21 20 23 25 27 30 32 35 35 35 34 33 34 34 33 33 33 33 32 33 34 36 37 38 39 40 39 38 37 38 39 40 40 41 44 45 45 46 50 54
nan 36 37 nan 39 32 30 29 29 27 27 36 48 41 40 40 36 40 38 27 nan nan nan nan nan nan nan nan nan nan nan nan nan nan nan nan nan nan 34 31 31 35 36 35 35 28 24 24 26 28 29 32 34 38 38 38 38 36 36 36 35 35 35 36 35 35 36 37 40 41 42 43 42 41 40 41 42 43 43 44 46 47 48 49 51 55
nan nan 37 35 38 38 32 30 31 30 35 44 40 43 42 41 35 36 29 22 29 38 45 49 45 43 36 nan nan nan nan nan nan nan nan nan nan nan nan 26 24 nan 30 33 34 30 26 26 28 31 31 34 37 40 41 40 41 39 38 38 38 37 38 38 38 38 39 40 42 43 44 44 44 43 43 43 45 46 48 49 50 51 53 53 53 55
nan nan nan 35 32 33 34 32 30 33 33 37 36 36 41 39 nan 30 23 22 39 38 44 41 39 36 37 39 31 nan nan nan nan nan nan nan nan nan nan 28 26 26 30 35 35 34 32 32 34 34 33 34 38 41 41 42 41 41 41 41 40 40 40 40 41 41 42 43 45 45 45 46 46 45 45 46 49 50 50 51 53 58 58 56 56 55
nan nan nan nan nan nan nan 30 30 32 35 35 35 39 37 nan 34 25 21 32 34 34 35 38 37 34 34 32 32 nan nan nan nan nan nan nan nan nan 32 27 26 27 32 37 41 41 38 35 34 34 36 38 40 40 41 42 42 43 43 44 44 44 43 43 44 45 46 47 47 47 47 47 47 46 47 49 51 52 52 53 56 61 61 59 57 54
nan nan nan nan nan nan nan nan nan 34 35 32 36 34 35 29 28 23 31 27 26 29 32 31 33 35 31 29 29 25 21 16 nan nan nan 33 37 37 28 26 26 29 34 37 44 42 40 37 38 39 41 43 43 43 43 44 46 47 47 47 48 49 47 47 47 48 49 50 50 48 46 47 48 47 49 51 52 53 54 55 58 61 61 59 56 53
nan nan nan nan nan nan nan nan nan nan 42 36 39 32 35 24 29 32 30 29 30 30 27 25 30 30 29 28 24 20 20 19 nan nan 29 31 34 30 26 26 28 28 34 41 43 44 44 43 42 44 47 47 48 47 47 49 51 51 51 52 53 52 51 51 52 53 53 53 50 47 46 47 49 49 51 52 53 53 54 58 60 62 63 60 57 50
nan nan nan nan nan nan nan nan nan nan 48 38 36 32 35 33 33 32 33 33 36 32 29 29 29 30 30 28 25 20 16 17 24 23 21 23 23 23 26 27 28 33 37 38 43 46 48 49 48 48 50 51 51 51 52 53 54 53 54 55 54 54 54 55 57 58 58 53 47 45 45 47 48 49 50 51 53 54 57 58 60 61 60 57 52 46
52 nan nan nan nan nan nan nan 57 57 52 46 45 44 41 38 35 35 35 40 37 36 34 31 33 31 30 31 28 24 22 23 26 24 21 18 22 28 33 33 31 31 32 37 45 51 52 51 51 52 54 53 54 54 53 53 55 56 56 53 53 54 55 57 60 63 60 51 43 42 44 46 47 48 48 50 51 52 55 56 56 57 54 49 46 44
51 50 50 51 49 53 59 58 55 53 49 49 45 41 44 44 40 40 43 42 42 38 36 33 34 31 30 30 26 24 25 31 29 30 28 25 26 33 37 38 36 37 39 42 45 49 52 53 53 55 58 58 57 56 55 54 55 56 54 54 54 56 59 60 61 63 60 50 43 42 44 44 46 47 47 48 49 49 52 54 54 53 51 47 45 44
48 52 54 47 54 45 49 54 55 54 52 52 50 46 45 45 44 44 47 47 46 43 38 36 35 34 36 35 35 34 35 32 35 36 37 38 37 38 41 41 39 38 40 43 45 48 51 54 57 59 59 59 57 55 54 55 54 54 54 56 57 60 62 61 61 63 58 49 43 42 43 44 45 47 48 47 48 48 51 52 52 51 50 47 46 44
42 51 51 48 50 49 53 56 57 54 55 54 49 46 44 45 48 50 51 52 52 48 44 43 42 40 40 43 42 42 43 42 40 38 38 37 38 41 43 43 42 43 44 45 47 50 54 56 58 59 59 58 56 54 54 55 55 54 55 57 58 61 62 62 64 64 56 46 42 42 43 43 49 50 49 49 48 48 50 51 51 50 49 47 46 44
42 44 45 51 50 53 57 54 52 55 56 58 57 54 48 44 46 49 53 56 54 51 50 50 46 41 40 46 44 43 45 45 43 41 39 40 40 41 42 43 45 47 48 48 49 52 54 56 58 58 58 57 55 55 55 56 55 56 56 57 58 59 61 63 65 60 52 44 42 43 44 46 49 49 50 53 54 53 51 49 48 46 49 50 44 41
nan nan 43 nan 45 45 45 43 46 47 48 50 52 50 48 46 nan 50 54 55 54 52 52 50 48 48 48 48 47 45 46 46 47 46 48 48 46 45 47 48 50 51 51 51 50 53 54 55 55 56 57 56 55 55 56 55 55 56 56 56 56 56 58 57 55 52 47 44 44 46 46 47 51 52 53 56 54 55 55 56 56 52 48 50 45 45
nan 44 44 46 nan nan 43 41 45 48 50 48 46 47 46 45 nan nan nan 48 49 51 51 52 51 50 49 50 50 50 50 52 54 55 55 54 52 49 48 50 50 50 51 53 54 55 56 56 57 58 58 56 55 55 54 53 53 53 54 54 54 53 52 49 47 45 45 46 44 47 50 50 52 54 54 55 54 54 56 54 55 57 55 51 48 48
Wind_Direction
nan nan nan nan nan nan nan nan nan nan nan nan nan nan nan nan nan nan nan nan nan nan nan 234 243 224 nan 280 278 273 278 278 284 297 293 322 355 22 43 46 48 37 44 15 22 34 13 16 354 354 334 346 347 347 331 330 332 333 336 329 331 331 333 319 323 331 339 339 343 355 10 22 26 38 43 44 42 43 31 24 15 358 348 4 346 346
nan nan nan nan nan nan nan nan nan nan nan nan nan nan nan nan nan nan nan nan nan nan nan nan 232 235 230 272 281 267 272 281 279 294 301 320 349 9 30 50 45 43 45 15 2 11 1 352 346 332 318 336 343 337 338 338 339 335 338 333 322 308 316 320 321 320 332 336 343 347 6 18 24 21 33 30 27 27 16 354 359 356 339 353 344 338
nan nan nan nan nan nan nan nan nan nan nan nan nan nan nan nan nan nan nan nan nan nan nan nan 212 231 245 247 271 282 276 252 256 250 275 295 327 325 13 42 49 46 37 30 5 0 360 351 349 331 325 325 339 334 339 332 333 330 329 324 316 304 310 317 318 318 326 334 344 350 349 9 14 8 6 21 4 8 359 347 340 337 331 329 328 330
nan nan nan nan nan nan nan nan nan nan nan nan nan nan nan nan nan nan nan nan nan nan nan nan nan nan 207 nan 245 262 271 266 257 266 262 269 262 301 355 6 38 40 30 34 12 4 3 353 347 332 328 321 325 320 321 321 327 311 313 317 316 309 312 307 317 319 328 337 338 345 344 348 356 328 332 340 341 344 340 331 324 320 319 318 322 323
nan nan nan nan nan nan nan nan nan nan nan nan nan nan nan nan nan nan nan nan nan nan nan nan nan 225 221 nan 243 253 271 276 279 271 264 256 262 257 300 354 360 27 19 23 13 1 357 358 353 341 332 327 327 323 320 319 315 294 323 320 319 309 312 304 315 324 320 320 325 318 327 323 312 311 311 313 321 325 322 320 320 320 319 319 319 315
nan nan nan nan nan nan nan nan nan nan nan nan nan nan nan nan nan nan nan nan nan nan nan nan 222 222 235 231 235 nan 260 272 273 278 280 266 257 273 312 324 326 8 12 8 7 354 353 353 348 342 335 336 329 325 323 325 322 314 307 311 310 298 296 302 317 324 312 304 308 310 312 313 305 306 308 316 318 317 317 320 317 321 321 318 315 314
nan nan nan nan nan nan nan nan nan nan nan nan nan nan nan nan nan nan nan nan nan nan nan nan nan nan 231 246 236 226 nan 272 272 276 278 274 264 274 277 287 318 330 330 343 353 346 351 344 342 340 336 337 334 328 325 324 325 323 310 308 308 296 285 296 302 316 299 303 300 317 309 303 304 305 306 308 313 312 314 316 319 316 314 315 316 318
nan nan nan nan nan nan nan nan nan nan nan nan nan nan nan nan nan nan nan nan nan nan nan nan nan nan nan 237 246 240 242 244 266 274 273 272 281 269 263 293 306 310 316 318 338 345 345 336 337 340 336 333 330 324 326 324 319 321 315 312 310 297 294 290 291 304 297 294 296 302 305 299 304 310 308 311 310 310 310 314 315 315 313 314 318 319
nan nan nan nan nan nan nan nan nan nan nan nan nan nan nan nan nan nan nan nan nan nan nan nan nan 226 228 nan nan nan 242 252 261 272 275 271 275 270 228 246 294 310 314 318 316 335 338 333 332 329 329 329 328 324 323 316 311 313 316 313 311 309 303 296 305 301 306 299 298 300 300 303 301 307 306 306 308 309 312 318 317 315 314 314 317 321
nan nan nan nan nan nan nan nan nan nan nan nan nan nan nan nan nan nan nan nan nan nan nan nan nan nan nan nan nan nan nan 245 255 263 272 274 264 270 259 195 216 288 298 314 317 317 321 320 318 319 318 321 323 321 312 310 310 312 309 313 314 313 304 301 308 306 313 312 303 303 307 312 307 303 304 303 305 308 311 317 319 315 315 319 321 320
nan nan nan nan nan nan nan nan nan nan nan nan nan nan nan nan nan nan nan nan nan nan nan nan nan nan nan nan nan nan nan nan 246 248 254 261 260 275 281 270 201 207 293 297 305 306 307 306 304 306 315 313 314 308 308 311 312 310 308 311 314 315 306 308 310 312 313 313 309 306 310 315 314 313 308 306 308 307 313 315 318 317 314 316 320 321
nan nan nan nan nan nan nan nan nan nan nan nan nan nan nan nan nan nan nan nan nan nan nan nan nan nan nan nan nan nan nan nan 255 247 262 279 287 283 284 nan 275 176 188 282 299 303 302 298 301 303 306 305 307 306 307 309 307 307 306 308 314 317 315 309 309 311 313 311 312 312 313 316 316 315 308 312 314 314 317 316 314 313 315 321 323 321
nan nan nan nan nan nan nan nan nan nan nan nan nan nan nan nan nan nan nan nan nan nan nan nan nan nan nan nan nan nan nan nan 263 259 nan nan 290 293 287 288 266 240 203 278 307 310 308 304 300 302 300 299 304 305 307 307 307 306 307 311 313 313 313 307 308 310 311 310 310 311 314 315 312 314 314 313 314 314 313 312 312 315 318 321 324 323
nan nan nan nan nan nan nan nan nan nan nan nan nan nan nan nan nan nan nan nan nan nan nan nan nan nan nan nan nan nan nan nan nan nan nan nan nan nan 281 271 263 279 307 341 348 327 320 315 309 302 299 301 302 310 308 308 306 302 301 306 309 309 308 305 305 307 308 309 309 310 311 311 308 310 312 312 312 312 308 308 311 319 322 324 327 327
nan nan nan nan nan nan nan nan nan nan nan nan nan nan nan nan nan nan nan nan nan nan nan nan nan nan nan nan nan nan nan nan nan nan nan nan nan nan 270 255 275 286 306 342 346 340 334 327 319 311 306 308 311 315 316 314 312 305 304 303 307 308 309 308 308 305 308 303 309 309 309 307 304 306 306 307 307 307 308 310 316 319 322 326 327 327
nan nan nan nan nan nan nan nan nan nan nan nan nan nan nan nan nan nan nan nan nan nan nan nan nan nan nan nan nan nan nan nan nan nan nan nan nan nan nan 274 274 289 323 349 359 352 345 331 323 321 320 317 315 319 321 325 318 316 309 310 314 314 312 311 310 306 304 302 301 306 307 307 306 301 302 301 301 303 309 313 317 319 323 325 323 325
nan nan nan nan nan nan nan nan nan nan nan nan nan nan nan nan nan nan nan nan nan nan nan nan nan nan nan nan nan nan nan nan nan nan nan nan nan nan nan nan 294 307 331 348 357 352 345 337 331 332 334 329 325 325 329 326 327 327 321 321 323 321 318 317 314 308 302 300 300 303 303 304 305 306 308 307 311 315 316 318 319 318 322 325 323 322
nan nan nan nan nan nan nan nan nan nan nan nan nan nan nan nan nan nan nan nan nan nan nan nan nan nan nan nan nan nan nan nan nan nan nan nan nan nan nan nan nan 310 324 338 346 344 342 339 336 339 343 342 336 335 336 334 333 332 331 331 328 325 326 319 313 310 306 306 305 303 305 304 303 304 310 311 314 316 319 320 318 320 322 326 328 329
nan nan nan nan nan nan nan nan nan nan nan nan nan nan nan nan nan nan nan nan nan nan nan nan nan nan nan nan nan nan nan nan nan nan nan nan nan nan nan 278 260 284 288 323 333 334 340 335 332 336 343 344 338 334 335 332 333 335 335 334 331 329 326 319 312 311 304 307 299 298 303 305 304 306 310 312 316 318 322 325 323 326 326 331 332 330
nan nan nan nan nan nan nan nan nan nan nan nan nan nan nan nan nan nan nan nan nan nan nan nan nan nan nan nan nan nan nan nan nan nan nan nan nan nan nan nan 259 244 231 310 316 322 335 338 335 336 335 338 336 333 330 331 333 341 338 333 331 325 318 316 315 311 310 311 308 307 306 307 306 309 313 317 319 322 325 327 328 331 333 334 331 330
nan nan nan nan nan nan nan nan nan nan nan nan nan nan nan nan nan nan nan nan nan nan nan nan nan nan nan nan nan nan nan nan nan nan nan nan nan nan nan nan nan 269 285 281 293 308 321 327 331 331 329 326 324 323 326 330 336 338 336 335 334 327 323 321 318 315 313 311 315 316 314 310 312 319 318 323 325 326 327 328 330 331 332 331 332 330
nan nan nan nan nan nan nan nan nan nan nan nan nan nan nan nan nan nan nan nan nan nan nan nan nan nan nan nan nan nan nan nan nan nan nan nan nan nan nan nan nan 249 262 271 277 295 302 310 318 318 317 314 317 325 331 329 332 337 339 335 332 330 327 325 320 315 312 314 315 320 314 316 317 321 321 327 327 329 328 329 330 330 332 337 335 332
nan nan nan nan nan nan nan nan nan nan nan nan nan nan nan nan nan nan nan nan nan nan nan nan nan nan nan nan nan nan nan nan nan nan nan nan nan nan nan nan nan 259 236 245 260 272 283 292 297 302 310 314 318 320 323 324 331 335 337 334 330 332 331 327 321 314 309 312 314 317 314 319 322 322 328 331 328 332 331 333 335 335 339 341 341 335
nan nan nan nan nan nan nan nan nan nan nan nan nan nan nan nan nan nan nan nan nan nan nan nan nan nan nan nan nan nan nan nan nan nan nan nan nan nan nan nan 265 255 222 226 234 249 263 276 282 285 301 305 303 307 317 319 321 325 330 331 330 334 331 328 322 316 313 313 313 315 317 322 323 327 330 333 327 332 336 338 340 339 341 344 344 336
nan nan nan nan nan nan nan nan nan nan nan nan nan nan nan nan nan nan nan nan nan nan nan nan nan nan nan nan nan nan nan nan nan nan nan nan nan nan nan nan nan 221 212 218 222 241 257 271 282 286 297 300 301 307 308 310 313 319 323 327 330 328 326 327 325 322 316 313 315 318 320 324 324 327 332 333 330 335 339 341 340 338 341 343 343 337
nan nan nan nan nan nan nan nan nan nan nan nan nan nan nan nan nan nan nan nan nan nan nan nan nan nan nan nan nan nan nan nan nan nan nan nan nan nan nan nan 254 229 216 215 219 238 253 262 272 280 291 296 304 303 300 301 308 313 315 323 326 324 321 324 325 321 313 310 315 317 323 323 325 331 337 338 338 338 338 338 336 337 338 340 341 337
nan nan nan nan nan nan nan nan nan nan nan nan nan nan nan nan nan nan nan nan nan nan nan nan nan nan nan nan nan nan nan nan nan nan nan nan nan nan 231 250 253 241 226 221 224 230 238 252 273 283 286 296 304 296 294 300 303 307 308 317 322 319 319 318 315 309 307 308 316 317 321 324 329 335 341 341 338 335 335 335 334 339 344 342 342 336
nan nan nan nan nan nan nan nan nan nan nan nan nan nan nan nan nan nan nan nan nan nan nan nan nan nan nan nan nan nan nan nan nan nan nan nan nan nan 244 251 253 248 236 224 225 232 240 246 257 269 278 288 294 293 292 296 300 302 305 311 314 315 315 309 308 304 304 308 314 317 323 327 331 336 338 335 334 334 333 332 331 337 341 341 344 338
nan nan nan nan nan nan nan nan nan nan nan nan nan nan nan nan nan nan nan nan nan nan nan nan nan nan nan nan nan nan nan nan nan nan nan nan nan nan 236 246 249 246 239 232 227 232 239 247 254 264 274 281 288 292 294 293 296 297 299 305 307 310 312 305 302 305 307 309 314 317 320 323 326 328 328 329 331 332 332 330 328 330 334 336 339 335
nan nan nan nan nan nan nan nan nan nan nan nan nan nan nan nan nan nan nan nan nan nan nan nan nan nan nan nan nan nan nan nan nan nan nan nan nan nan nan nan 246 238 238 233 230 231 237 248 255 262 270 276 284 289 293 292 294 299 301 303 305 303 302 298 302 304 305 309 313 316 321 325 324 325 326 328 332 333 331 329 327 329 330 332 334 333
nan nan nan nan nan nan nan nan nan nan nan nan nan nan nan nan nan nan nan nan nan nan nan nan nan nan nan nan nan nan nan nan nan nan nan nan nan nan nan nan nan 224 230 232 230 228 232 244 256 264 273 279 284 289 290 289 291 294 298 298 301 300 299 302 300 300 302 306 310 317 324 326 327 327 330 331 332 331 330 328 327 328 325 324 328 330
nan nan nan nan nan nan nan nan nan nan nan nan nan nan nan nan nan nan nan nan nan nan nan nan nan nan nan nan nan nan nan nan nan nan 248 nan nan nan nan nan nan nan nan 226 232 231 231 240 256 270 280 284 286 288 288 287 290 292 294 295 299 301 300 298 295 293 295 300 307 318 325 326 330 333 333 332 334 337 333 326 326 326 322 323 325 326
nan nan nan 233 229 nan nan nan nan nan nan nan nan nan nan nan nan nan nan nan nan nan nan nan nan nan nan nan nan nan nan nan nan nan nan nan 239 227 nan nan nan nan nan 236 238 237 232 235 253 269 276 276 277 281 287 287 288 289 290 293 295 295 298 298 293 289 292 296 303 315 321 321 324 326 327 328 329 328 331 329 326 325 321 322 321 323
nan nan nan nan nan nan nan 228 228 225 nan nan nan nan nan nan nan nan nan nan nan nan nan nan nan nan nan nan nan nan nan nan nan nan nan nan 244 245 nan nan nan nan nan nan 238 231 226 229 242 260 272 272 272 275 278 281 281 280 283 289 292 298 299 300 297 296 295 294 301 307 313 320 322 324 325 321 321 325 324 326 326 325 318 317 317 319
nan nan nan nan nan 225 225 227 225 226 nan nan nan nan nan nan nan nan nan nan nan nan nan nan nan nan nan nan nan nan nan nan nan nan nan nan nan nan nan nan nan 227 nan 234 236 225 219 229 246 258 264 267 268 270 274 276 277 278 283 291 295 298 302 304 305 305 302 299 299 304 310 317 318 320 318 315 317 320 324 324 322 317 315 316 316 318
nan nan 226 223 227 223 221 229 225 nan 223 nan nan nan nan nan nan nan nan nan nan nan nan nan nan nan nan nan nan nan nan nan nan nan nan nan nan nan nan nan nan nan nan 241 234 226 226 239 252 260 262 261 265 268 271 273 276 280 284 290 294 298 301 303 305 307 305 303 305 308 312 314 317 318 315 316 317 319 321 320 317 317 315 316 314 313
nan 232 227 224 229 223 226 nan nan 222 222 nan nan 229 225 223 223 219 214 210 nan 203 205 nan nan nan nan nan nan nan nan nan nan nan nan nan nan nan nan nan nan nan nan 245 236 221 223 234 245 252 255 259 264 268 270 272 276 280 284 289 292 296 298 301 303 303 303 304 305 307 309 311 313 314 313 314 315 315 315 315 313 314 311 314 314 313
nan 221 230 nan 228 226 223 226 224 227 229 233 227 237 231 230 221 224 224 221 nan nan nan nan nan nan nan nan nan nan nan nan nan nan nan nan nan nan 243 238 233 231 236 241 239 232 228 233 241 250 255 262 265 267 268 273 275 278 282 286 288 292 293 297 299 298 299 300 302 303 304 305 307 310 311 311 312 310 311 311 313 314 310 311 313 314
nan nan 221 223 224 228 225 224 225 224 229 235 233 232 233 232 230 230 233 228 237 221 216 212 212 210 207 nan nan nan nan nan nan nan nan nan nan nan nan 246 241 nan 239 243 242 236 232 234 241 250 252 259 265 267 270 274 278 280 282 283 285 287 290 292 293 295 296 297 297 299 301 302 303 305 307 308 309 308 309 308 307 307 304 305 310 315
nan nan nan 223 222 222 224 226 225 228 230 243 241 241 239 235 nan 246 250 253 238 220 220 219 216 213 215 217 216 nan nan nan nan nan nan nan nan nan nan 246 243 239 237 240 237 234 231 234 240 247 252 257 260 266 272 276 278 280 280 279 279 282 284 287 289 291 292 293 293 294 296 298 299 301 303 306 306 305 304 302 302 303 303 303 305 307
nan nan nan nan nan nan nan 222 222 229 234 242 241 238 236 nan 235 246 253 245 233 228 226 224 218 217 218 219 229 nan nan nan nan nan nan nan nan nan 254 247 238 233 235 238 237 235 231 233 238 244 249 249 255 262 269 272 275 276 274 274 275 277 279 282 285 286 286 286 287 289 292 294 295 298 300 302 304 303 301 301 301 300 301 306 307 304
nan nan nan nan nan nan nan nan nan 227 237 247 249 251 254 246 243 238 241 244 236 231 234 225 223 223 218 222 232 238 229 218 nan nan nan 217 220 238 244 243 237 232 229 231 236 233 230 231 236 241 245 247 252 255 259 263 266 268 270 271 271 272 274 277 279 279 279 279 281 284 288 290 292 295 297 299 300 300 301 301 301 300 302 305 306 301
nan nan nan nan nan nan nan nan nan nan 246 255 250 248 250 251 245 239 238 237 234 230 226 227 230 228 225 224 227 231 230 230 nan nan 225 224 227 225 228 233 233 229 229 234 235 232 232 233 238 242 246 248 250 251 254 259 261 263 265 266 268 269 271 272 272 272 272 273 277 281 286 289 292 293 293 296 299 301 301 298 296 296 298 302 299 295
nan nan nan nan nan nan nan nan nan nan 245 247 252 247 247 239 240 239 235 237 235 231 232 230 229 229 229 226 222 226 247 255 250 248 252 248 238 231 227 227 229 230 233 235 235 234 234 235 238 242 245 246 249 253 256 259 261 263 265 266 266 268 269 271 271 269 267 269 274 280 284 287 290 292 293 297 297 298 298 297 296 297 300 300 296 294
210 nan nan nan nan nan nan nan 235 237 242 243 243 243 249 247 245 241 236 235 234 235 233 226 225 223 228 230 220 219 236 256 266 271 266 255 247 240 232 227 230 236 237 240 240 238 237 239 242 243 245 247 250 252 255 259 263 265 267 266 268 269 271 272 271 270 270 273 277 281 283 286 289 291 293 295 296 297 296 296 298 299 299 300 297 296
199 202 210 213 221 225 231 236 236 236 240 242 248 250 251 249 245 240 237 237 237 238 234 225 220 223 229 235 239 231 236 245 258 261 254 249 246 241 233 228 229 233 238 240 242 240 241 242 243 243 243 244 247 250 253 256 260 264 265 267 267 268 267 268 268 269 272 275 277 280 283 286 288 289 290 291 293 295 294 296 299 300 300 299 298 300
204 205 207 210 219 224 227 234 237 240 243 245 247 247 248 248 247 244 242 240 237 236 234 225 225 224 234 237 241 245 249 254 252 250 247 241 237 236 234 230 229 234 238 239 239 238 237 237 238 239 242 245 248 252 255 258 260 263 266 266 266 265 266 267 268 269 271 274 275 278 283 286 285 286 288 291 290 291 293 296 298 298 298 299 301 303
204 206 202 210 217 220 229 232 236 238 240 242 244 246 248 250 248 244 240 240 238 235 234 235 229 223 230 238 238 244 247 248 247 246 242 237 228 225 226 227 231 234 235 235 236 237 236 236 237 239 242 245 248 251 256 259 260 261 263 264 264 265 265 267 267 268 270 274 276 279 282 284 282 284 286 289 291 292 295 296 296 297 298 301 303 304
203 205 210 211 219 223 225 225 236 241 244 243 242 244 243 246 250 247 244 239 235 236 236 233 234 246 239 237 235 241 247 248 247 242 236 230 226 222 224 226 231 234 234 232 231 233 233 236 238 239 241 243 245 248 250 253 255 257 259 260 263 268 271 271 271 271 274 276 278 280 282 283 283 284 286 282 278 277 276 278 284 289 295 284 287 292
nan nan 212 nan 219 223 226 224 231 235 241 240 240 240 241 242 nan 249 244 240 236 234 230 230 230 230 235 234 234 235 239 240 238 235 233 231 225 220 222 226 229 232 232 232 232 234 234 236 238 240 242 243 246 248 250 250 251 253 256 260 268 275 279 280 279 279 279 280 283 284 284 282 283 285 284 283 283 282 280 278 278 277 284 288 281 281
nan 210 205 211 nan nan 218 219 225 228 231 235 235 233 233 239 nan nan nan 243 238 235 234 226 217 223 226 227 226 228 227 226 226 227 228 227 221 218 222 227 230 232 233 233 233 233 234 235 237 239 241 243 245 247 250 252 254 257 261 265 271 276 278 279 277 276 277 281 284 283 284 282 282 284 285 284 285 285 286 286 280 275 274 279 283 281